EJU35TP EDDB-LEBL

Flight info

Callsign EJU35TP
Flight time N/A
Altitude 37000
Route KISUC1N KISUC Z117 ORTAG DCT BAMKI/N0428F360 DCT IBAGA DCT DKB DCT TEDGO/N0435F370 N869 NATOR DCT LUTIX DCT BENOT DCT NEMOS DCT GEVEA DCT INCUS DCT BALSI DCT RETNO DCT TUPOX DCT MTG DCT DIVKO DCT NILDU DCT BISBA
Aircraft A20N/M-SDE2E3FGHIRWXY/LB1

Departure

Time 2026-05-04 09:04
Airport Berlin Brandenburg Airport (EDDB)

Arrival

Time N/A
Airport Josep Tarradellas Barcelona-El Prat Airport (LEBL)
Time Latitude Longitude Altitude Speed Heading
2026-05-04 08:35 52.36169 13.51475 149 ft 0 kts 339°
2026-05-04 08:57 52.36073 13.51473 151 ft 2 kts 56°
2026-05-04 09:01 52.36071 13.51469 151 ft 2 kts 70°
2026-05-04 09:01 52.36082 13.51519 151 ft 7 kts 68°
2026-05-04 09:01 52.36110 13.51638 149 ft 11 kts 68°
2026-05-04 09:01 52.36137 13.51758 149 ft 9 kts 81°
2026-05-04 09:02 52.36093 13.51856 148 ft 9 kts 135°
2026-05-04 09:02 52.36099 13.51995 146 ft 13 kts 68°
2026-05-04 09:02 52.36097 13.52115 146 ft 10 kts 137°
2026-05-04 09:02 52.36017 13.52171 146 ft 11 kts 159°
2026-05-04 09:03 52.35929 13.52227 145 ft 13 kts 158°
2026-05-04 09:03 52.35860 13.52270 145 ft 6 kts 161°
2026-05-04 09:03 52.35821 13.52227 144 ft 8 kts 250°
2026-05-04 09:03 52.35786 13.52074 144 ft 19 kts 249°
2026-05-04 09:04 52.35637 13.51437 149 ft 91 kts 247°
2026-05-04 09:04 52.35267 13.49890 147 ft 158 kts 248°
2026-05-04 09:04 52.34804 13.47921 736 ft 164 kts 247°
2026-05-04 09:04 52.34208 13.46143 1516 ft 166 kts 237°
2026-05-04 09:05 52.33415 13.44383 2253 ft 174 kts 237°
2026-05-04 09:05 52.32630 13.42451 2812 ft 190 kts 237°
2026-05-04 09:05 52.31665 13.40465 3324 ft 211 kts 229°
2026-05-04 09:05 52.30504 13.38389 4027 ft 225 kts 229°
2026-05-04 09:06 52.29377 13.36373 5003 ft 224 kts 229°
2026-05-04 09:07 52.22819 13.21013 10151 ft 265 kts 248°
2026-05-04 09:08 52.22067 13.17984 10810 ft 274 kts 248°
2026-05-04 09:08 52.21267 13.14784 11680 ft 276 kts 248°
2026-05-04 09:08 52.20490 13.11691 12512 ft 278 kts 247°
2026-05-04 09:08 52.19712 13.08608 13287 ft 280 kts 247°
2026-05-04 09:09 52.18969 13.05672 14016 ft 283 kts 247°
2026-05-04 09:09 52.18220 13.02718 14730 ft 285 kts 247°
2026-05-04 09:09 52.17441 12.99647 15439 ft 288 kts 247°
2026-05-04 09:09 52.16728 12.96599 16118 ft 291 kts 250°
2026-05-04 09:10 52.16137 12.93449 16745 ft 295 kts 253°
2026-05-04 09:10 52.15643 12.90132 17050 ft 310 kts 255°
2026-05-04 09:10 52.15141 12.86581 17343 ft 324 kts 256°
2026-05-04 09:10 52.14630 12.82952 17833 ft 331 kts 256°
2026-05-04 09:11 52.14118 12.79312 18442 ft 334 kts 255°
2026-05-04 09:11 52.13591 12.75591 19048 ft 336 kts 256°
2026-05-04 09:11 52.13055 12.71816 19643 ft 339 kts 256°
2026-05-04 09:11 52.12517 12.68042 20205 ft 342 kts 256°
2026-05-04 09:12 52.11982 12.64288 20736 ft 346 kts 255°
2026-05-04 09:12 52.11425 12.60394 21283 ft 349 kts 256°
2026-05-04 09:14 52.06985 12.32413 24843 ft 366 kts 244°
2026-05-04 09:14 52.05723 12.28732 25340 ft 368 kts 237°
2026-05-04 09:14 52.04231 12.25326 25818 ft 370 kts 234°
2026-05-04 09:14 52.02554 12.21665 26295 ft 372 kts 234°
2026-05-04 09:15 52.00845 12.17956 26761 ft 374 kts 234°
2026-05-04 09:15 51.99235 12.14464 27187 ft 376 kts 234°
2026-05-04 09:15 51.97689 12.11110 27576 ft 378 kts 234°
2026-05-04 09:15 51.96093 12.07648 27979 ft 380 kts 234°
2026-05-04 09:17 51.82896 11.79226 30888 ft 390 kts 234°
2026-05-04 09:18 51.81255 11.75762 31319 ft 388 kts 234°
2026-05-04 09:18 51.79573 11.72214 31742 ft 386 kts 234°
2026-05-04 09:18 51.77950 11.68799 32097 ft 386 kts 234°
2026-05-04 09:18 51.76307 11.65343 32430 ft 385 kts 234°
2026-05-04 09:19 51.74679 11.61927 32766 ft 384 kts 234°
2026-05-04 09:19 51.73000 11.58405 33099 ft 383 kts 233°
2026-05-04 09:19 51.71351 11.54954 33414 ft 383 kts 233°
2026-05-04 09:19 51.69745 11.51594 33721 ft 382 kts 233°
2026-05-04 09:20 51.68128 11.48215 34038 ft 380 kts 233°
2026-05-04 09:20 51.66475 11.44769 34361 ft 378 kts 233°
2026-05-04 09:20 51.64863 11.41413 34626 ft 378 kts 233°
2026-05-04 09:20 51.63212 11.37978 34798 ft 380 kts 233°
2026-05-04 09:21 51.61528 11.34480 34951 ft 381 kts 232°
2026-05-04 09:21 51.59829 11.30957 35123 ft 382 kts 232°
2026-05-04 09:21 51.58087 11.27350 35284 ft 383 kts 232°
2026-05-04 09:21 51.56405 11.23872 35421 ft 384 kts 232°
2026-05-04 09:22 51.54691 11.20331 35565 ft 385 kts 232°
2026-05-04 09:22 51.52882 11.16895 35696 ft 387 kts 226°
2026-05-04 09:22 51.50730 11.13833 35833 ft 389 kts 219°
2026-05-04 09:22 51.48240 11.11231 35965 ft 392 kts 211°
2026-05-04 09:23 51.42781 11.07949 35988 ft 401 kts 195°
2026-05-04 09:23 51.36974 11.07024 35991 ft 407 kts 187°
2026-05-04 09:25 51.13189 11.05180 36006 ft 407 kts 187°
2026-05-04 09:26 51.07217 11.04714 36012 ft 407 kts 187°
2026-05-04 09:26 51.00919 11.04226 36007 ft 407 kts 187°
2026-05-04 09:27 50.94601 11.03736 36005 ft 407 kts 187°
2026-05-04 09:27 50.88587 11.03272 36006 ft 407 kts 187°
2026-05-04 09:28 50.82728 11.02823 36004 ft 407 kts 187°
2026-05-04 09:28 50.76626 11.02319 36002 ft 407 kts 188°
2026-05-04 09:29 50.70348 11.00920 36002 ft 404 kts 195°
2026-05-04 09:29 50.64324 10.98365 36001 ft 401 kts 200°
2026-05-04 09:30 50.58261 10.95450 35999 ft 402 kts 200°
2026-05-04 09:30 50.52470 10.92679 36004 ft 401 kts 200°
2026-05-04 09:31 50.46470 10.89812 36009 ft 402 kts 200°
2026-05-04 09:31 50.40478 10.86955 36012 ft 402 kts 200°
2026-05-04 09:32 50.34778 10.84246 36012 ft 403 kts 200°
2026-05-04 09:34 50.11810 10.73389 36017 ft 404 kts 200°
2026-05-04 09:34 50.06099 10.70707 36018 ft 404 kts 200°
2026-05-04 09:35 50.00144 10.67919 36014 ft 405 kts 200°
2026-05-04 09:35 49.94373 10.65224 36003 ft 405 kts 200°
2026-05-04 09:37 49.71424 10.54319 36000 ft 404 kts 202°
2026-05-04 09:38 49.65346 10.51039 36006 ft 405 kts 202°
2026-05-04 09:38 49.59544 10.47918 36018 ft 404 kts 202°
2026-05-04 09:39 49.54104 10.44995 36024 ft 404 kts 202°
2026-05-04 09:39 49.48461 10.41969 36028 ft 404 kts 202°
2026-05-04 09:40 49.42863 10.38976 36033 ft 404 kts 202°
2026-05-04 09:40 49.37546 10.36140 36033 ft 404 kts 202°
2026-05-04 09:42 49.16540 10.23756 36036 ft 401 kts 214°
2026-05-04 09:43 49.12118 10.18692 36035 ft 399 kts 223°
2026-05-04 09:43 49.08325 10.12506 36025 ft 397 kts 231°
2026-05-04 09:44 49.04878 10.06004 36023 ft 397 kts 231°
2026-05-04 09:46 48.90570 9.79089 36018 ft 396 kts 231°
2026-05-04 09:46 48.87104 9.72613 36016 ft 396 kts 231°
2026-05-04 09:47 48.83612 9.66108 36012 ft 396 kts 231°
2026-05-04 09:49 48.69119 9.39264 36012 ft 396 kts 231°
2026-05-04 09:51 48.57255 9.16124 36012 ft 395 kts 234°
2026-05-04 09:51 48.54075 9.09396 36013 ft 396 kts 234°
2026-05-04 09:52 48.50879 9.02646 36014 ft 395 kts 234°
2026-05-04 09:52 48.47696 8.95938 36013 ft 395 kts 234°
2026-05-04 09:53 48.44526 8.89274 36016 ft 395 kts 234°
2026-05-04 09:53 48.41319 8.82549 36051 ft 397 kts 233°
2026-05-04 09:53 48.39711 8.79184 36221 ft 397 kts 234°
2026-05-04 09:54 48.38012 8.75634 36423 ft 395 kts 234°
2026-05-04 09:54 48.36252 8.71958 36601 ft 395 kts 234°
2026-05-04 09:54 48.34628 8.68574 36749 ft 395 kts 234°
2026-05-04 09:54 48.32937 8.65052 36909 ft 395 kts 234°
2026-05-04 09:55 48.31199 8.61439 37025 ft 396 kts 234°
2026-05-04 09:55 48.27926 8.54645 37023 ft 396 kts 234°
2026-05-04 09:56 48.24472 8.47498 37025 ft 396 kts 234°
2026-05-04 09:56 48.21055 8.40557 37025 ft 395 kts 231°
2026-05-04 09:57 48.17368 8.34374 37029 ft 396 kts 224°
2026-05-04 09:57 48.13010 8.28622 37031 ft 395 kts 218°
2026-05-04 09:58 48.08355 8.23791 37033 ft 396 kts 214°
2026-05-04 09:58 48.03431 8.19043 37032 ft 396 kts 214°
2026-05-04 10:00 47.83954 8.00371 37032 ft 396 kts 213°
2026-05-04 10:04 47.49262 7.67542 37029 ft 396 kts 213°
2026-05-04 10:04 47.44287 7.62878 37031 ft 396 kts 213°
2026-05-04 10:05 47.39451 7.58355 37030 ft 396 kts 213°
2026-05-04 10:05 47.34474 7.53709 37037 ft 397 kts 213°
2026-05-04 10:06 47.29518 7.49096 37041 ft 396 kts 213°
2026-05-04 10:06 47.24466 7.44402 37047 ft 397 kts 213°
2026-05-04 10:08 47.11437 7.27668 37033 ft 397 kts 230°
2026-05-04 10:08 47.09552 7.24201 37032 ft 397 kts 230°
2026-05-04 10:08 47.05928 7.17535 37027 ft 397 kts 230°
2026-05-04 10:09 47.02247 7.10779 37028 ft 397 kts 230°
2026-05-04 10:09 46.98591 7.04096 37029 ft 397 kts 230°
2026-05-04 10:10 46.94976 6.97503 37029 ft 397 kts 230°
2026-05-04 10:10 46.91317 6.91397 37037 ft 396 kts 225°
2026-05-04 10:11 46.87267 6.85960 37042 ft 395 kts 219°
2026-05-04 10:11 46.83015 6.80889 37043 ft 395 kts 219°
2026-05-04 10:12 46.78707 6.75752 37048 ft 395 kts 219°
2026-05-04 10:12 46.74267 6.70475 37046 ft 394 kts 219°
2026-05-04 10:13 46.69740 6.65111 37039 ft 394 kts 219°
2026-05-04 10:13 46.65264 6.59819 37042 ft 394 kts 219°
2026-05-04 10:14 46.60818 6.54573 37052 ft 393 kts 219°
2026-05-04 10:16 46.43137 6.33829 37054 ft 393 kts 218°
2026-05-04 10:16 46.38646 6.28590 37057 ft 392 kts 219°
2026-05-04 10:17 46.34198 6.23413 37056 ft 392 kts 219°
2026-05-04 10:19 46.16412 6.11231 37060 ft 395 kts 192°
2026-05-04 10:19 46.13574 6.10584 37063 ft 396 kts 191°
2026-05-04 10:19 46.07750 6.09279 37063 ft 396 kts 191°
2026-05-04 10:20 46.02135 6.08031 37056 ft 396 kts 191°
2026-05-04 10:20 45.96461 6.06772 37053 ft 396 kts 191°
2026-05-04 10:21 45.90796 6.05520 37082 ft 395 kts 191°
2026-05-04 10:21 45.85028 6.04247 37078 ft 393 kts 192°
2026-05-04 10:22 45.76398 6.02333 37039 ft 393 kts 191°
2026-05-04 10:23 45.70575 6.01049 37049 ft 393 kts 192°